Regional Weather Roundup
Issued by NWS Tiyan, Guam

Home | Current Version | Previous Version | Text Only | Print | Product List | Glossary On
Versions: 1 2 3 4 5 6 7 8 9 10 11 12 13 14 15 16 17 18 19 20 21 22 23 24 25 26 27
000
ASGM40 PGUM 220410
RWRGUM
WEATHER ROUNDUP FOR THE MARIANAS
NATIONAL WEATHER SERVICE TIYAN GU
200 PM CHST SUN APR 22 2018

GUZ001>004-220500-
MARIANA ISLANDS-

CITY           SKY/WX    TMP DP  RH WIND       PRES   REMARKS
GUAM AIRPORT   MOSUNNY   90  70  51 NE20      29.81F HX  95
ANDERSEN AFB   MOSUNNY   84  68  58 E20       29.82F
ROTA AIRPORT   MOSUNNY   82  70  65 E16       29.82F
TINIAN AP      MOSUNNY   82  73  74 NE18      29.81F
SAIPAN AP      MOSUNNY   84  73  70 E20       29.82F HX  91

$$





USA.gov is the U.S. government's official web portal to all federal, state and local government web resources and services.